Middle River (Iowa), Indianola (05486490)

StateIowaLatestUnknown (343 cfs)
RiverMiddle RiverRatingObservedEstimated
Updated2026-05-05 7:15 (1 hour ago)Flood - The river is flooding. Obstacles can be treacherous or deadly. The river should be avoided at this stage for casual trips and definitely for the inexperienced. Trips should be attempted only with protective gear and equipment.Flood(none)(none)
Discharge343 cfs (median: 243 cfs)High - The river is high and potentially dangerous, especially for the young and / or inexperienced. Normal stream obstacles are sometimes difficult to navigate. Extended distances can be attempted, but canoe travel may not be advisable.High(none)(none)
Height8.36 feetGood - Conditions are ideal for a canoe or kayak. Boats typically will drag on fewer than one-quarter of riffles, if at all, and portages are unnecessary or rare. Normal float lengths can be attempted without a problem.Good(none)(none)
TrendFalling (falling over 24 hours)Low - River is low but can still be floated. Some riffles are okay but most come with significant dragging and might need a portage. Float lengths should be reduced to accommodate low flow, dragging, and portages.Low(none)(none)
USGSExternal icon USGS Site (External icon Duck Duck Go Maps)Poor - River is too low to float comfortably. Most or all riffles will drag or must be portaged and some obstacles (such as slick shelf rock) cause undue problems. Avoid the river at this stage for casual paddling trips.Poor(none)(none)

Trending Data

Plot Image

Trips for Middle River (Iowa), Indianola (05486490)

DateStartEndDistanceConditionDischargeHeightFishingDetails
Click for details2021-11-20 Pammel State Park Pammel State Park Total trip distance: 3.3 miles3.3 Low 75 7.35 None NoneNone Turner, SkipTurner, Skip Solo up and back, no access at Harmon Avenue. Indianola gauge 88.1 ft3/min, 7.35 ft.Solo up and back, no access at Harmon Avenue. Indianola gauge 88.1 ft3/min, 7.35 ft. USGS Gauge Data:
Indianola (05486490)
Discharge: 75
Height: 7.35
<b>USGS Gauge Data:</b></br />Indianola (05486490)<br />Discharge: 75<br />Height: 7.35
Source: TurnerSource: Turner

A total of 1 rows are displayed.

Trip Summary for Middle River (Iowa), Indianola (05486490)

Miles3.3
Trips1
People1
Dates1
Years1
Months1
Rows1
Sources1

Condition Descriptions

Fishing Conditions

Fish Species

Notes

Classic Trip List

The classic River Trips application is still available for use. It is updated with the new system using a data retrofit. It is no longer maintained. The original River Trips application is no longer updated (as of 1 Dec 2016) but can be checked for errors or for the condition of the data before it was converted to the new system.

Gauge Data Table

ObservationHeightDischargeMaximum
Discharge
Minimum
Discharge
Mean
Discharge
P05P10P20P25P50
(Median)
P75P80P90P95
2026-05-05 07:15 8.36 343 2950 (2003) 5 (1956) 450 24 41 81 107 243 654 780 1040 1280
2026-05-05 06:15 8.37 345 2950 (2003) 5 (1956) 450 24 41 81 107 243 654 780 1040 1280
2026-05-05 05:15 8.37 345 2950 (2003) 5 (1956) 450 24 41 81 107 243 654 780 1040 1280
2026-05-05 04:15 8.37 345 2950 (2003) 5 (1956) 450 24 41 81 107 243 654 780 1040 1280
2026-05-05 03:15 8.38 348 2950 (2003) 5 (1956) 450 24 41 81 107 243 654 780 1040 1280
2026-05-05 02:15 8.38 348 2950 (2003) 5 (1956) 450 24 41 81 107 243 654 780 1040 1280
2026-05-05 01:15 8.39 350 2950 (2003) 5 (1956) 450 24 41 81 107 243 654 780 1040 1280
2026-05-05 00:15 8.39 350 2950 (2003) 5 (1956) 450 24 41 81 107 243 654 780 1040 1280
2026-05-04 23:15 8.39 350 2950 (2003) 5 (1956) 450 24 41 81 107 243 654 780 1040 1280
2026-05-04 22:15 8.40 353 2520 (1944) 5 (1956) 481 24 36 86 101 246 592 789 1190 2050
2026-05-04 21:15 8.41 355 2520 (1944) 5 (1956) 481 24 36 86 101 246 592 789 1190 2050
2026-05-04 20:15 8.42 358 2520 (1944) 5 (1956) 481 24 36 86 101 246 592 789 1190 2050
2026-05-04 19:15 8.42 358 2520 (1944) 5 (1956) 481 24 36 86 101 246 592 789 1190 2050
2026-05-04 18:15 8.41 355 2520 (1944) 5 (1956) 481 24 36 86 101 246 592 789 1190 2050
2026-05-04 17:15 8.41 355 2520 (1944) 5 (1956) 481 24 36 86 101 246 592 789 1190 2050
2026-05-04 16:15 8.42 358 2520 (1944) 5 (1956) 481 24 36 86 101 246 592 789 1190 2050
2026-05-04 15:15 8.42 358 2520 (1944) 5 (1956) 481 24 36 86 101 246 592 789 1190 2050
2026-05-04 14:15 8.42 358 2520 (1944) 5 (1956) 481 24 36 86 101 246 592 789 1190 2050
2026-05-04 13:15 8.43 360 2520 (1944) 5 (1956) 481 24 36 86 101 246 592 789 1190 2050
2026-05-04 12:15 8.43 360 2520 (1944) 5 (1956) 481 24 36 86 101 246 592 789 1190 2050
2026-05-04 11:15 8.44 363 2520 (1944) 5 (1956) 481 24 36 86 101 246 592 789 1190 2050
2026-05-04 10:15 8.44 363 2520 (1944) 5 (1956) 481 24 36 86 101 246 592 789 1190 2050
2026-05-04 09:15 8.44 363 2520 (1944) 5 (1956) 481 24 36 86 101 246 592 789 1190 2050
2026-05-04 08:15 8.45 366 2520 (1944) 5 (1956) 481 24 36 86 101 246 592 789 1190 2050
2026-05-04 07:15 8.46 368 2520 (1944) 5 (1956) 481 24 36 86 101 246 592 789 1190 2050
2026-05-04 06:15 8.46 368 2520 (1944) 5 (1956) 481 24 36 86 101 246 592 789 1190 2050
2026-05-04 05:15 8.46 368 2520 (1944) 5 (1956) 481 24 36 86 101 246 592 789 1190 2050
2026-05-04 04:15 8.47 371 2520 (1944) 5 (1956) 481 24 36 86 101 246 592 789 1190 2050
2026-05-04 03:15 8.47 371 2520 (1944) 5 (1956) 481 24 36 86 101 246 592 789 1190 2050
2026-05-04 02:15 8.48 373 2520 (1944) 5 (1956) 481 24 36 86 101 246 592 789 1190 2050
2026-05-04 01:15 8.48 373 2520 (1944) 5 (1956) 481 24 36 86 101 246 592 789 1190 2050
2026-05-04 00:15 8.48 373 2520 (1944) 5 (1956) 481 24 36 86 101 246 592 789 1190 2050
2026-05-03 23:15 8.49 376 2520 (1944) 5 (1956) 481 24 36 86 101 246 592 789 1190 2050
2026-05-03 22:15 8.49 376 3990 (1944) 6 (1956) 522 24 39 96 112 231 584 768 1570 1880
2026-05-03 21:15 8.49 376 3990 (1944) 6 (1956) 522 24 39 96 112 231 584 768 1570 1880
2026-05-03 20:15 8.50 379 3990 (1944) 6 (1956) 522 24 39 96 112 231 584 768 1570 1880
2026-05-03 19:15 8.50 379 3990 (1944) 6 (1956) 522 24 39 96 112 231 584 768 1570 1880
2026-05-03 18:15 8.50 379 3990 (1944) 6 (1956) 522 24 39 96 112 231 584 768 1570 1880
2026-05-03 17:15 8.50 379 3990 (1944) 6 (1956) 522 24 39 96 112 231 584 768 1570 1880
2026-05-03 16:15 8.51 381 3990 (1944) 6 (1956) 522 24 39 96 112 231 584 768 1570 1880
2026-05-03 15:15 8.52 384 3990 (1944) 6 (1956) 522 24 39 96 112 231 584 768 1570 1880
2026-05-03 14:15 8.52 384 3990 (1944) 6 (1956) 522 24 39 96 112 231 584 768 1570 1880
2026-05-03 13:15 8.53 386 3990 (1944) 6 (1956) 522 24 39 96 112 231 584 768 1570 1880
2026-05-03 12:15 8.53 386 3990 (1944) 6 (1956) 522 24 39 96 112 231 584 768 1570 1880
2026-05-03 11:15 8.52 384 3990 (1944) 6 (1956) 522 24 39 96 112 231 584 768 1570 1880
2026-05-03 10:15 8.54 389 3990 (1944) 6 (1956) 522 24 39 96 112 231 584 768 1570 1880
2026-05-03 09:15 8.55 392 3990 (1944) 6 (1956) 522 24 39 96 112 231 584 768 1570 1880
2026-05-03 08:15 8.54 389 3990 (1944) 6 (1956) 522 24 39 96 112 231 584 768 1570 1880
2026-05-03 07:15 8.55 392 3990 (1944) 6 (1956) 522 24 39 96 112 231 584 768 1570 1880
2026-05-03 06:15 8.56 394 3990 (1944) 6 (1956) 522 24 39 96 112 231 584 768 1570 1880
2026-05-03 05:15 8.55 392 3990 (1944) 6 (1956) 522 24 39 96 112 231 584 768 1570 1880
2026-05-03 04:15 8.56 394 3990 (1944) 6 (1956) 522 24 39 96 112 231 584 768 1570 1880
2026-05-03 03:15 8.57 397 3990 (1944) 6 (1956) 522 24 39 96 112 231 584 768 1570 1880
2026-05-03 02:15 8.57 397 3990 (1944) 6 (1956) 522 24 39 96 112 231 584 768 1570 1880
2026-05-03 01:15 8.58 400 3990 (1944) 6 (1956) 522 24 39 96 112 231 584 768 1570 1880
2026-05-03 00:15 8.59 403 3990 (1944) 6 (1956) 522 24 39 96 112 231 584 768 1570 1880
2026-05-02 23:15 8.60 405 3990 (1944) 6 (1956) 522 24 39 96 112 231 584 768 1570 1880
2026-05-02 22:15 8.59 403 6290 (1951) 7 (1956) 524 27 40 96 117 237 608 691 1070 2190
2026-05-02 21:15 8.61 408 6290 (1951) 7 (1956) 524 27 40 96 117 237 608 691 1070 2190
2026-05-02 20:15 8.60 405 6290 (1951) 7 (1956) 524 27 40 96 117 237 608 691 1070 2190
2026-05-02 19:15 8.61 408 6290 (1951) 7 (1956) 524 27 40 96 117 237 608 691 1070 2190
2026-05-02 18:15 8.60 405 6290 (1951) 7 (1956) 524 27 40 96 117 237 608 691 1070 2190
2026-05-02 17:15 8.61 408 6290 (1951) 7 (1956) 524 27 40 96 117 237 608 691 1070 2190
2026-05-02 16:15 8.62 411 6290 (1951) 7 (1956) 524 27 40 96 117 237 608 691 1070 2190
2026-05-02 15:15 8.63 413 6290 (1951) 7 (1956) 524 27 40 96 117 237 608 691 1070 2190
2026-05-02 14:15 8.63 413 6290 (1951) 7 (1956) 524 27 40 96 117 237 608 691 1070 2190
2026-05-02 13:15 8.62 411 6290 (1951) 7 (1956) 524 27 40 96 117 237 608 691 1070 2190
2026-05-02 12:15 8.65 419 6290 (1951) 7 (1956) 524 27 40 96 117 237 608 691 1070 2190
2026-05-02 11:15 8.65 419 6290 (1951) 7 (1956) 524 27 40 96 117 237 608 691 1070 2190
2026-05-02 10:15 8.65 419 6290 (1951) 7 (1956) 524 27 40 96 117 237 608 691 1070 2190
2026-05-02 09:15 8.66 422 6290 (1951) 7 (1956) 524 27 40 96 117 237 608 691 1070 2190
2026-05-02 08:15 8.66 422 6290 (1951) 7 (1956) 524 27 40 96 117 237 608 691 1070 2190
2026-05-02 07:15 8.68 427 6290 (1951) 7 (1956) 524 27 40 96 117 237 608 691 1070 2190
2026-05-02 06:15 8.68 427 6290 (1951) 7 (1956) 524 27 40 96 117 237 608 691 1070 2190
2026-05-02 05:15 8.69 430 6290 (1951) 7 (1956) 524 27 40 96 117 237 608 691 1070 2190
2026-05-02 04:15 8.68 427 6290 (1951) 7 (1956) 524 27 40 96 117 237 608 691 1070 2190
2026-05-02 03:15 8.69 430 6290 (1951) 7 (1956) 524 27 40 96 117 237 608 691 1070 2190
2026-05-02 02:15 8.70 433 6290 (1951) 7 (1956) 524 27 40 96 117 237 608 691 1070 2190
2026-05-02 01:15 8.72 438 6290 (1951) 7 (1956) 524 27 40 96 117 237 608 691 1070 2190
2026-05-02 00:15 8.71 436 6290 (1951) 7 (1956) 524 27 40 96 117 237 608 691 1070 2190
2026-05-01 23:15 8.73 441 6290 (1951) 7 (1956) 524 27 40 96 117 237 608 691 1070 2190
2026-05-01 22:15 8.74 444 6440 (1951) 5 (1956) 589 27 38 102 113 245 650 784 1380 3420
2026-05-01 21:15 8.75 447 6440 (1951) 5 (1956) 589 27 38 102 113 245 650 784 1380 3420
2026-05-01 20:15 8.75 447 6440 (1951) 5 (1956) 589 27 38 102 113 245 650 784 1380 3420
2026-05-01 19:15 8.76 450 6440 (1951) 5 (1956) 589 27 38 102 113 245 650 784 1380 3420
2026-05-01 18:15 8.76 450 6440 (1951) 5 (1956) 589 27 38 102 113 245 650 784 1380 3420
2026-05-01 17:15 8.78 456 6440 (1951) 5 (1956) 589 27 38 102 113 245 650 784 1380 3420
2026-05-01 16:15 8.78 456 6440 (1951) 5 (1956) 589 27 38 102 113 245 650 784 1380 3420
2026-05-01 15:15 8.77 453 6440 (1951) 5 (1956) 589 27 38 102 113 245 650 784 1380 3420
2026-05-01 14:15 8.79 458 6440 (1951) 5 (1956) 589 27 38 102 113 245 650 784 1380 3420
2026-05-01 13:15 8.79 458 6440 (1951) 5 (1956) 589 27 38 102 113 245 650 784 1380 3420
2026-05-01 12:15 8.81 464 6440 (1951) 5 (1956) 589 27 38 102 113 245 650 784 1380 3420
2026-05-01 11:15 8.82 467 6440 (1951) 5 (1956) 589 27 38 102 113 245 650 784 1380 3420
2026-05-01 10:15 8.82 467 6440 (1951) 5 (1956) 589 27 38 102 113 245 650 784 1380 3420
2026-05-01 09:15 8.82 467 6440 (1951) 5 (1956) 589 27 38 102 113 245 650 784 1380 3420
2026-05-01 08:15 8.84 473 6440 (1951) 5 (1956) 589 27 38 102 113 245 650 784 1380 3420
2026-05-01 07:15 8.83 470 6440 (1951) 5 (1956) 589 27 38 102 113 245 650 784 1380 3420
2026-05-01 06:15 8.84 473 6440 (1951) 5 (1956) 589 27 38 102 113 245 650 784 1380 3420
2026-05-01 05:15 8.85 476 6440 (1951) 5 (1956) 589 27 38 102 113 245 650 784 1380 3420
2026-05-01 04:15 8.86 479 6440 (1951) 5 (1956) 589 27 38 102 113 245 650 784 1380 3420
2026-05-01 03:15 8.87 482 6440 (1951) 5 (1956) 589 27 38 102 113 245 650 784 1380 3420
2026-05-01 02:15 8.88 485 6440 (1951) 5 (1956) 589 27 38 102 113 245 650 784 1380 3420
2026-05-01 01:15 8.89 488 6440 (1951) 5 (1956) 589 27 38 102 113 245 650 784 1380 3420
2026-05-01 00:15 8.90 491 6440 (1951) 5 (1956) 589 27 38 102 113 245 650 784 1380 3420
2026-04-30 23:15 8.91 494 6440 (1951) 5 (1956) 589 27 38 102 113 245 650 784 1380 3420
2026-04-30 22:15 8.91 494 8300 (1984) 6 (1956) 553 28 40 100 113 245 611 659 1280 2060
2026-04-30 21:15 8.93 500 8300 (1984) 6 (1956) 553 28 40 100 113 245 611 659 1280 2060
2026-04-30 20:15 8.93 500 8300 (1984) 6 (1956) 553 28 40 100 113 245 611 659 1280 2060
2026-04-30 19:15 8.94 503 8300 (1984) 6 (1956) 553 28 40 100 113 245 611 659 1280 2060
2026-04-30 18:15 8.96 509 8300 (1984) 6 (1956) 553 28 40 100 113 245 611 659 1280 2060
2026-04-30 17:15 8.97 512 8300 (1984) 6 (1956) 553 28 40 100 113 245 611 659 1280 2060
2026-04-30 16:15 8.98 515 8300 (1984) 6 (1956) 553 28 40 100 113 245 611 659 1280 2060
2026-04-30 15:15 8.99 518 8300 (1984) 6 (1956) 553 28 40 100 113 245 611 659 1280 2060
2026-04-30 14:15 9.00 521 8300 (1984) 6 (1956) 553 28 40 100 113 245 611 659 1280 2060
2026-04-30 13:15 9.00 521 8300 (1984) 6 (1956) 553 28 40 100 113 245 611 659 1280 2060
2026-04-30 12:15 9.02 527 8300 (1984) 6 (1956) 553 28 40 100 113 245 611 659 1280 2060
2026-04-30 11:15 9.03 531 8300 (1984) 6 (1956) 553 28 40 100 113 245 611 659 1280 2060
2026-04-30 10:15 9.04 534 8300 (1984) 6 (1956) 553 28 40 100 113 245 611 659 1280 2060
2026-04-30 09:15 9.04 534 8300 (1984) 6 (1956) 553 28 40 100 113 245 611 659 1280 2060
2026-04-30 08:15 9.05 537 8300 (1984) 6 (1956) 553 28 40 100 113 245 611 659 1280 2060
2026-04-30 07:15 9.06 540 8300 (1984) 6 (1956) 553 28 40 100 113 245 611 659 1280 2060
2026-04-30 06:15 9.07 543 8300 (1984) 6 (1956) 553 28 40 100 113 245 611 659 1280 2060
2026-04-30 05:15 9.08 546 8300 (1984) 6 (1956) 553 28 40 100 113 245 611 659 1280 2060
2026-04-30 04:15 9.09 549 8300 (1984) 6 (1956) 553 28 40 100 113 245 611 659 1280 2060
2026-04-30 03:15 9.12 559 8300 (1984) 6 (1956) 553 28 40 100 113 245 611 659 1280 2060
2026-04-30 02:15 9.12 559 8300 (1984) 6 (1956) 553 28 40 100 113 245 611 659 1280 2060
2026-04-30 01:15 9.15 569 8300 (1984) 6 (1956) 553 28 40 100 113 245 611 659 1280 2060
2026-04-30 00:15 9.16 572 8300 (1984) 6 (1956) 553 28 40 100 113 245 611 659 1280 2060
2026-04-29 23:15 9.18 578 8300 (1984) 6 (1956) 553 28 40 100 113 245 611 659 1280 2060
2026-04-29 22:15 9.20 585 8790 (1974) 8 (1956) 520 25 38 83 120 263 419 637 1200 1990
2026-04-29 21:15 9.21 588 8790 (1974) 8 (1956) 520 25 38 83 120 263 419 637 1200 1990
2026-04-29 20:15 9.24 598 8790 (1974) 8 (1956) 520 25 38 83 120 263 419 637 1200 1990
2026-04-29 19:15 9.25 602 8790 (1974) 8 (1956) 520 25 38 83 120 263 419 637 1200 1990
2026-04-29 18:15 9.26 605 8790 (1974) 8 (1956) 520 25 38 83 120 263 419 637 1200 1990
2026-04-29 17:15 9.28 612 8790 (1974) 8 (1956) 520 25 38 83 120 263 419 637 1200 1990
2026-04-29 16:15 9.30 618 8790 (1974) 8 (1956) 520 25 38 83 120 263 419 637 1200 1990
2026-04-29 15:15 9.31 622 8790 (1974) 8 (1956) 520 25 38 83 120 263 419 637 1200 1990
2026-04-29 14:15 9.35 634 8790 (1974) 8 (1956) 520 25 38 83 120 263 419 637 1200 1990
2026-04-29 13:15 9.36 637 8790 (1974) 8 (1956) 520 25 38 83 120 263 419 637 1200 1990
2026-04-29 12:15 9.39 646 8790 (1974) 8 (1956) 520 25 38 83 120 263 419 637 1200 1990
2026-04-29 11:15 9.41 651 8790 (1974) 8 (1956) 520 25 38 83 120 263 419 637 1200 1990
2026-04-29 10:15 9.43 657 8790 (1974) 8 (1956) 520 25 38 83 120 263 419 637 1200 1990
2026-04-29 09:15 9.45 663 8790 (1974) 8 (1956) 520 25 38 83 120 263 419 637 1200 1990
2026-04-29 08:15 9.48 672 8790 (1974) 8 (1956) 520 25 38 83 120 263 419 637 1200 1990
2026-04-29 07:15 9.50 677 8790 (1974) 8 (1956) 520 25 38 83 120 263 419 637 1200 1990
2026-04-29 06:15 9.54 689 8790 (1974) 8 (1956) 520 25 38 83 120 263 419 637 1200 1990
2026-04-29 05:15 9.58 701 8790 (1974) 8 (1956) 520 25 38 83 120 263 419 637 1200 1990
2026-04-29 04:15 9.60 707 8790 (1974) 8 (1956) 520 25 38 83 120 263 419 637 1200 1990
2026-04-29 03:15 9.63 716 8790 (1974) 8 (1956) 520 25 38 83 120 263 419 637 1200 1990
2026-04-29 02:15 9.69 734 8790 (1974) 8 (1956) 520 25 38 83 120 263 419 637 1200 1990
2026-04-29 01:15 9.73 746 8790 (1974) 8 (1956) 520 25 38 83 120 263 419 637 1200 1990
2026-04-29 00:15 9.78 762 8790 (1974) 8 (1956) 520 25 38 83 120 263 419 637 1200 1990
2026-04-28 23:15 9.83 777 8790 (1974) 8 (1956) 520 25 38 83 120 263 419 637 1200 1990
2026-04-28 22:15 9.89 796 7930 (2009) 6 (1956) 515 32 39 85 109 285 546 665 1200 1960
2026-04-28 21:15 9.93 808 7930 (2009) 6 (1956) 515 32 39 85 109 285 546 665 1200 1960
2026-04-28 20:15 9.97 821 7930 (2009) 6 (1956) 515 32 39 85 109 285 546 665 1200 1960
2026-04-28 19:15 10.02 837 7930 (2009) 6 (1956) 515 32 39 85 109 285 546 665 1200 1960
2026-04-28 18:15 10.07 853 7930 (2009) 6 (1956) 515 32 39 85 109 285 546 665 1200 1960
2026-04-28 17:15 10.15 879 7930 (2009) 6 (1956) 515 32 39 85 109 285 546 665 1200 1960
2026-04-28 16:15 10.20 895 7930 (2009) 6 (1956) 515 32 39 85 109 285 546 665 1200 1960
2026-04-28 15:15 10.25 912 7930 (2009) 6 (1956) 515 32 39 85 109 285 546 665 1200 1960
2026-04-28 14:15 10.29 925 7930 (2009) 6 (1956) 515 32 39 85 109 285 546 665 1200 1960
2026-04-28 13:15 10.31 932 7930 (2009) 6 (1956) 515 32 39 85 109 285 546 665 1200 1960
2026-04-28 12:15 10.36 949 7930 (2009) 6 (1956) 515 32 39 85 109 285 546 665 1200 1960
2026-04-28 11:15 10.34 942 7930 (2009) 6 (1956) 515 32 39 85 109 285 546 665 1200 1960
2026-04-28 10:15 10.35 945 7930 (2009) 6 (1956) 515 32 39 85 109 285 546 665 1200 1960
2026-04-28 09:15 10.34 942 7930 (2009) 6 (1956) 515 32 39 85 109 285 546 665 1200 1960
2026-04-28 08:15 10.30 929 7930 (2009) 6 (1956) 515 32 39 85 109 285 546 665 1200 1960
2026-04-28 07:15 10.28 922 7930 (2009) 6 (1956) 515 32 39 85 109 285 546 665 1200 1960
2026-04-28 06:15 10.27 919 7930 (2009) 6 (1956) 515 32 39 85 109 285 546 665 1200 1960
2026-04-28 05:15 10.23 905 7930 (2009) 6 (1956) 515 32 39 85 109 285 546 665 1200 1960
2026-04-28 04:15 10.21 899 7930 (2009) 6 (1956) 515 32 39 85 109 285 546 665 1200 1960
2026-04-28 03:15 10.16 882 7930 (2009) 6 (1956) 515 32 39 85 109 285 546 665 1200 1960
2026-04-28 02:15 10.07 853 7930 (2009) 6 (1956) 515 32 39 85 109 285 546 665 1200 1960
2026-04-28 01:15 9.95 815 7930 (2009) 6 (1956) 515 32 39 85 109 285 546 665 1200 1960
2026-04-28 00:15 9.80 768 7930 (2009) 6 (1956) 515 32 39 85 109 285 546 665 1200 1960
2026-04-27 22:15 9.59 704 11000 (2009) 4 (1956) 647 32 42 88 97 277 464 635 1490 2190
2026-04-27 21:15 9.52 683 11000 (2009) 4 (1956) 647 32 42 88 97 277 464 635 1490 2190
2026-04-27 20:15 9.48 672 11000 (2009) 4 (1956) 647 32 42 88 97 277 464 635 1490 2190
2026-04-27 19:15 9.43 657 11000 (2009) 4 (1956) 647 32 42 88 97 277 464 635 1490 2190
2026-04-27 18:15 9.42 654 11000 (2009) 4 (1956) 647 32 42 88 97 277 464 635 1490 2190
2026-04-27 17:15 9.42 654 11000 (2009) 4 (1956) 647 32 42 88 97 277 464 635 1490 2190
2026-04-27 16:15 9.42 654 11000 (2009) 4 (1956) 647 32 42 88 97 277 464 635 1490 2190
2026-04-27 15:15 9.42 654 11000 (2009) 4 (1956) 647 32 42 88 97 277 464 635 1490 2190
2026-04-27 14:15 9.40 648 11000 (2009) 4 (1956) 647 32 42 88 97 277 464 635 1490 2190
2026-04-27 13:15 9.37 640 11000 (2009) 4 (1956) 647 32 42 88 97 277 464 635 1490 2190
2026-04-27 12:15 9.32 625 11000 (2009) 4 (1956) 647 32 42 88 97 277 464 635 1490 2190
2026-04-27 11:15 9.29 615 11000 (2009) 4 (1956) 647 32 42 88 97 277 464 635 1490 2190
2026-04-27 10:15 9.26 605 11000 (2009) 4 (1956) 647 32 42 88 97 277 464 635 1490 2190
2026-04-27 09:15 9.19 582 11000 (2009) 4 (1956) 647 32 42 88 97 277 464 635 1490 2190
2026-04-27 08:15 9.15 569 11000 (2009) 4 (1956) 647 32 42 88 97 277 464 635 1490 2190
2026-04-27 07:15 9.09 549 11000 (2009) 4 (1956) 647 32 42 88 97 277 464 635 1490 2190
2026-04-27 06:15 9.06 540 11000 (2009) 4 (1956) 647 32 42 88 97 277 464 635 1490 2190
2026-04-27 05:15 9.05 537 11000 (2009) 4 (1956) 647 32 42 88 97 277 464 635 1490 2190
2026-04-27 04:15 9.05 537 11000 (2009) 4 (1956) 647 32 42 88 97 277 464 635 1490 2190
2026-04-27 03:15 9.05 537 11000 (2009) 4 (1956) 647 32 42 88 97 277 464 635 1490 2190
2026-04-27 02:15 9.06 540 11000 (2009) 4 (1956) 647 32 42 88 97 277 464 635 1490 2190
2026-04-27 01:15 9.09 549 11000 (2009) 4 (1956) 647 32 42 88 97 277 464 635 1490 2190
2026-04-27 00:15 9.09 549 11000 (2009) 4 (1956) 647 32 42 88 97 277 464 635 1490 2190
2026-04-26 23:15 9.10 553 11000 (2009) 4 (1956) 647 32 42 88 97 277 464 635 1490 2190
2026-04-26 22:15 9.12 559 5850 (2007) 3 (1956) 500 31 45 70 84 256 469 577 1370 1980
2026-04-26 21:15 9.13 562 5850 (2007) 3 (1956) 500 31 45 70 84 256 469 577 1370 1980
2026-04-26 20:15 9.14 565 5850 (2007) 3 (1956) 500 31 45 70 84 256 469 577 1370 1980
2026-04-26 19:15 9.15 569 5850 (2007) 3 (1956) 500 31 45 70 84 256 469 577 1370 1980
2026-04-26 18:15 9.19 582 5850 (2007) 3 (1956) 500 31 45 70 84 256 469 577 1370 1980
2026-04-26 17:15 9.19 582 5850 (2007) 3 (1956) 500 31 45 70 84 256 469 577 1370 1980
2026-04-26 16:15 9.22 592 5850 (2007) 3 (1956) 500 31 45 70 84 256 469 577 1370 1980
2026-04-26 15:15 9.24 598 5850 (2007) 3 (1956) 500 31 45 70 84 256 469 577 1370 1980
2026-04-26 14:15 9.25 602 5850 (2007) 3 (1956) 500 31 45 70 84 256 469 577 1370 1980
2026-04-26 13:15 9.27 608 5850 (2007) 3 (1956) 500 31 45 70 84 256 469 577 1370 1980
2026-04-26 12:15 9.29 615 5850 (2007) 3 (1956) 500 31 45 70 84 256 469 577 1370 1980
2026-04-26 11:15 9.30 618 5850 (2007) 3 (1956) 500 31 45 70 84 256 469 577 1370 1980
2026-04-26 10:15 9.32 625 5850 (2007) 3 (1956) 500 31 45 70 84 256 469 577 1370 1980
2026-04-26 09:15 9.36 637 5850 (2007) 3 (1956) 500 31 45 70 84 256 469 577 1370 1980
2026-04-26 08:15 9.36 637 5850 (2007) 3 (1956) 500 31 45 70 84 256 469 577 1370 1980
2026-04-26 07:15 9.36 637 5850 (2007) 3 (1956) 500 31 45 70 84 256 469 577 1370 1980
2026-04-26 06:15 9.39 646 5850 (2007) 3 (1956) 500 31 45 70 84 256 469 577 1370 1980
2026-04-26 05:15 9.42 654 5850 (2007) 3 (1956) 500 31 45 70 84 256 469 577 1370 1980
2026-04-26 04:15 9.44 660 5850 (2007) 3 (1956) 500 31 45 70 84 256 469 577 1370 1980
2026-04-26 03:15 9.45 663 5850 (2007) 3 (1956) 500 31 45 70 84 256 469 577 1370 1980
2026-04-26 02:15 9.49 675 5850 (2007) 3 (1956) 500 31 45 70 84 256 469 577 1370 1980
2026-04-26 01:15 9.52 683 5850 (2007) 3 (1956) 500 31 45 70 84 256 469 577 1370 1980
2026-04-26 00:15 9.55 692 5850 (2007) 3 (1956) 500 31 45 70 84 256 469 577 1370 1980
2026-04-25 23:15 9.57 698 5850 (2007) 3 (1956) 500 31 45 70 84 256 469 577 1370 1980
2026-04-25 22:15 9.60 707 6470 (1976) 3 (1956) 513 33 42 69 88 264 511 609 1090 2300
2026-04-25 21:15 9.62 713 6470 (1976) 3 (1956) 513 33 42 69 88 264 511 609 1090 2300
2026-04-25 20:15 9.63 716 6470 (1976) 3 (1956) 513 33 42 69 88 264 511 609 1090 2300
2026-04-25 19:15 9.68 731 6470 (1976) 3 (1956) 513 33 42 69 88 264 511 609 1090 2300
2026-04-25 18:15 9.70 737 6470 (1976) 3 (1956) 513 33 42 69 88 264 511 609 1090 2300
2026-04-25 17:15 9.74 749 6470 (1976) 3 (1956) 513 33 42 69 88 264 511 609 1090 2300
2026-04-25 16:15 9.80 768 6470 (1976) 3 (1956) 513 33 42 69 88 264 511 609 1090 2300
2026-04-25 15:15 9.84 780 6470 (1976) 3 (1956) 513 33 42 69 88 264 511 609 1090 2300
2026-04-25 14:15 9.88 793 6470 (1976) 3 (1956) 513 33 42 69 88 264 511 609 1090 2300
2026-04-25 13:15 9.93 808 6470 (1976) 3 (1956) 513 33 42 69 88 264 511 609 1090 2300
2026-04-25 12:15 1 831 6470 (1976) 3 (1956) 513 33 42 69 88 264 511 609 1090 2300
2026-04-25 11:15 10.06 850 6470 (1976) 3 (1956) 513 33 42 69 88 264 511 609 1090 2300
2026-04-25 10:15 10.12 869 6470 (1976) 3 (1956) 513 33 42 69 88 264 511 609 1090 2300
2026-04-25 09:15 10.18 889 6470 (1976) 3 (1956) 513 33 42 69 88 264 511 609 1090 2300
2026-04-25 08:15 10.25 912 6470 (1976) 3 (1956) 513 33 42 69 88 264 511 609 1090 2300
2026-04-25 07:15 10.32 935 6470 (1976) 3 (1956) 513 33 42 69 88 264 511 609 1090 2300
2026-04-25 06:15 10.40 962 6470 (1976) 3 (1956) 513 33 42 69 88 264 511 609 1090 2300
2026-04-25 05:15 10.48 990 6470 (1976) 3 (1956) 513 33 42 69 88 264 511 609 1090 2300
2026-04-25 04:15 10.56 1020 6470 (1976) 3 (1956) 513 33 42 69 88 264 511 609 1090 2300
2026-04-25 03:15 10.63 1040 6470 (1976) 3 (1956) 513 33 42 69 88 264 511 609 1090 2300
2026-04-25 02:15 10.68 1060 6470 (1976) 3 (1956) 513 33 42 69 88 264 511 609 1090 2300
2026-04-25 01:15 10.70 1070 6470 (1976) 3 (1956) 513 33 42 69 88 264 511 609 1090 2300
2026-04-25 00:15 10.71 1070 6470 (1976) 3 (1956) 513 33 42 69 88 264 511 609 1090 2300
2026-04-24 23:15 10.71 1070 6470 (1976) 3 (1956) 513 33 42 69 88 264 511 609 1090 2300
2026-04-24 22:15 10.70 1070 7210 (1976) 3 (1956) 449 29 40 68 92 229 513 633 912 1380
2026-04-24 21:15 10.68 1060 7210 (1976) 3 (1956) 449 29 40 68 92 229 513 633 912 1380
2026-04-24 20:15 10.66 1050 7210 (1976) 3 (1956) 449 29 40 68 92 229 513 633 912 1380
2026-04-24 19:15 10.62 1040 7210 (1976) 3 (1956) 449 29 40 68 92 229 513 633 912 1380
2026-04-24 18:15 10.58 1020 7210 (1976) 3 (1956) 449 29 40 68 92 229 513 633 912 1380
2026-04-24 17:15 10.53 1010 7210 (1976) 3 (1956) 449 29 40 68 92 229 513 633 912 1380
2026-04-24 16:15 10.44 976 7210 (1976) 3 (1956) 449 29 40 68 92 229 513 633 912 1380
2026-04-24 15:15 10.34 942 7210 (1976) 3 (1956) 449 29 40 68 92 229 513 633 912 1380
2026-04-24 14:15 10.27 919 7210 (1976) 3 (1956) 449 29 40 68 92 229 513 633 912 1380
2026-04-24 13:15 10.19 892 7210 (1976) 3 (1956) 449 29 40 68 92 229 513 633 912 1380
2026-04-24 12:15 10.14 876 7210 (1976) 3 (1956) 449 29 40 68 92 229 513 633 912 1380
2026-04-24 11:15 10.11 866 7210 (1976) 3 (1956) 449 29 40 68 92 229 513 633 912 1380
2026-04-24 10:15 10.06 850 7210 (1976) 3 (1956) 449 29 40 68 92 229 513 633 912 1380
2026-04-24 09:15 10.03 840 7210 (1976) 3 (1956) 449 29 40 68 92 229 513 633 912 1380
2026-04-24 08:15 9.98 824 7210 (1976) 3 (1956) 449 29 40 68 92 229 513 633 912 1380
2026-04-24 07:15 9.91 802 7210 (1976) 3 (1956) 449 29 40 68 92 229 513 633 912 1380
2026-04-24 06:15 9.82 774 7210 (1976) 3 (1956) 449 29 40 68 92 229 513 633 912 1380
2026-04-24 05:15 9.66 725 7210 (1976) 3 (1956) 449 29 40 68 92 229 513 633 912 1380
2026-04-24 04:15 9.41 651 7210 (1976) 3 (1956) 449 29 40 68 92 229 513 633 912 1380
2026-04-24 03:15 9.22 592 7210 (1976) 3 (1956) 449 29 40 68 92 229 513 633 912 1380
2026-04-24 02:15 9.05 537 7210 (1976) 3 (1956) 449 29 40 68 92 229 513 633 912 1380
2026-04-24 01:15 8.91 494 7210 (1976) 3 (1956) 449 29 40 68 92 229 513 633 912 1380
2026-04-24 00:15 8.83 470 7210 (1976) 3 (1956) 449 29 40 68 92 229 513 633 912 1380
2026-04-23 23:15 8.78 456 7210 (1976) 3 (1956) 449 29 40 68 92 229 513 633 912 1380
2026-04-23 22:15 8.75 447 2730 (1999) 3 (1956) 417 33 47 71 88 281 543 569 973 1660
2026-04-23 21:15 8.74 444 2730 (1999) 3 (1956) 417 33 47 71 88 281 543 569 973 1660
2026-04-23 20:15 8.70 433 2730 (1999) 3 (1956) 417 33 47 71 88 281 543 569 973 1660
2026-04-23 19:15 8.71 436 2730 (1999) 3 (1956) 417 33 47 71 88 281 543 569 973 1660
2026-04-23 18:15 8.71 436 2730 (1999) 3 (1956) 417 33 47 71 88 281 543 569 973 1660
2026-04-23 17:15 8.70 433 2730 (1999) 3 (1956) 417 33 47 71 88 281 543 569 973 1660
2026-04-23 16:15 8.70 433 2730 (1999) 3 (1956) 417 33 47 71 88 281 543 569 973 1660
2026-04-23 15:15 8.72 438 2730 (1999) 3 (1956) 417 33 47 71 88 281 543 569 973 1660
2026-04-23 14:15 8.72 438 2730 (1999) 3 (1956) 417 33 47 71 88 281 543 569 973 1660
2026-04-23 13:15 8.72 438 2730 (1999) 3 (1956) 417 33 47 71 88 281 543 569 973 1660
2026-04-23 12:15 8.73 441 2730 (1999) 3 (1956) 417 33 47 71 88 281 543 569 973 1660
2026-04-23 11:15 8.73 441 2730 (1999) 3 (1956) 417 33 47 71 88 281 543 569 973 1660
2026-04-23 10:15 8.73 441 2730 (1999) 3 (1956) 417 33 47 71 88 281 543 569 973 1660
2026-04-23 09:15 8.74 444 2730 (1999) 3 (1956) 417 33 47 71 88 281 543 569 973 1660
2026-04-23 08:15 8.75 447 2730 (1999) 3 (1956) 417 33 47 71 88 281 543 569 973 1660
2026-04-23 07:15 8.74 444 2730 (1999) 3 (1956) 417 33 47 71 88 281 543 569 973 1660
2026-04-23 06:15 8.75 447 2730 (1999) 3 (1956) 417 33 47 71 88 281 543 569 973 1660
2026-04-23 05:15 8.75 447 2730 (1999) 3 (1956) 417 33 47 71 88 281 543 569 973 1660
2026-04-23 04:15 8.76 450 2730 (1999) 3 (1956) 417 33 47 71 88 281 543 569 973 1660
2026-04-23 03:15 8.76 450 2730 (1999) 3 (1956) 417 33 47 71 88 281 543 569 973 1660
2026-04-23 02:15 8.77 453 2730 (1999) 3 (1956) 417 33 47 71 88 281 543 569 973 1660
2026-04-23 01:15 8.79 458 2730 (1999) 3 (1956) 417 33 47 71 88 281 543 569 973 1660
2026-04-23 00:15 8.79 458 2730 (1999) 3 (1956) 417 33 47 71 88 281 543 569 973 1660
2026-04-22 23:15 8.80 461 2730 (1999) 3 (1956) 417 33 47 71 88 281 543 569 973 1660
2026-04-22 22:15 8.80 461 5320 (1984) 3 (1956) 486 30 43 67 86 240 591 746 1020 1770
2026-04-22 21:15 8.80 461 5320 (1984) 3 (1956) 486 30 43 67 86 240 591 746 1020 1770
2026-04-22 20:15 8.81 464 5320 (1984) 3 (1956) 486 30 43 67 86 240 591 746 1020 1770
2026-04-22 19:15 8.82 467 5320 (1984) 3 (1956) 486 30 43 67 86 240 591 746 1020 1770
2026-04-22 18:15 8.82 467 5320 (1984) 3 (1956) 486 30 43 67 86 240 591 746 1020 1770
2026-04-22 17:15 8.83 470 5320 (1984) 3 (1956) 486 30 43 67 86 240 591 746 1020 1770
2026-04-22 16:15 8.83 470 5320 (1984) 3 (1956) 486 30 43 67 86 240 591 746 1020 1770
2026-04-22 15:15 8.83 470 5320 (1984) 3 (1956) 486 30 43 67 86 240 591 746 1020 1770
2026-04-22 14:15 8.83 470 5320 (1984) 3 (1956) 486 30 43 67 86 240 591 746 1020 1770
2026-04-22 13:15 8.83 470 5320 (1984) 3 (1956) 486 30 43 67 86 240 591 746 1020 1770
2026-04-22 12:15 8.84 473 5320 (1984) 3 (1956) 486 30 43 67 86 240 591 746 1020 1770
2026-04-22 11:15 8.84 473 5320 (1984) 3 (1956) 486 30 43 67 86 240 591 746 1020 1770
2026-04-22 10:15 8.85 476 5320 (1984) 3 (1956) 486 30 43 67 86 240 591 746 1020 1770
2026-04-22 09:15 8.85 476 5320 (1984) 3 (1956) 486 30 43 67 86 240 591 746 1020 1770
2026-04-22 08:15 8.84 467 5320 (1984) 3 (1956) 486 30 43 67 86 240 591 746 1020 1770
2026-04-22 07:15 8.86 473 5320 (1984) 3 (1956) 486 30 43 67 86 240 591 746 1020 1770
2026-04-22 06:15 8.85 470 5320 (1984) 3 (1956) 486 30 43 67 86 240 591 746 1020 1770
2026-04-22 05:15 8.86 473 5320 (1984) 3 (1956) 486 30 43 67 86 240 591 746 1020 1770
2026-04-22 04:15 8.87 476 5320 (1984) 3 (1956) 486 30 43 67 86 240 591 746 1020 1770
2026-04-22 03:15 8.88 479 5320 (1984) 3 (1956) 486 30 43 67 86 240 591 746 1020 1770
2026-04-22 02:15 8.88 479 5320 (1984) 3 (1956) 486 30 43 67 86 240 591 746 1020 1770
2026-04-22 01:15 8.89 482 5320 (1984) 3 (1956) 486 30 43 67 86 240 591 746 1020 1770
2026-04-22 00:15 8.90 485 5320 (1984) 3 (1956) 486 30 43 67 86 240 591 746 1020 1770
2026-04-21 23:15 8.91 488 5320 (1984) 3 (1956) 486 30 43 67 86 240 591 746 1020 1770
2026-04-21 22:15 8.91 488 4000 (1976) 3 (1956) 517 24 45 70 96 234 716 906 1290 1790
2026-04-21 21:15 8.92 491 4000 (1976) 3 (1956) 517 24 45 70 96 234 716 906 1290 1790
2026-04-21 20:15 8.92 491 4000 (1976) 3 (1956) 517 24 45 70 96 234 716 906 1290 1790
2026-04-21 19:15 8.93 494 4000 (1976) 3 (1956) 517 24 45 70 96 234 716 906 1290 1790
2026-04-21 18:15 8.93 494 4000 (1976) 3 (1956) 517 24 45 70 96 234 716 906 1290 1790
2026-04-21 17:15 8.93 494 4000 (1976) 3 (1956) 517 24 45 70 96 234 716 906 1290 1790
2026-04-21 16:15 8.95 500 4000 (1976) 3 (1956) 517 24 45 70 96 234 716 906 1290 1790
2026-04-21 15:15 8.95 500 4000 (1976) 3 (1956) 517 24 45 70 96 234 716 906 1290 1790
2026-04-21 14:15 8.96 503 4000 (1976) 3 (1956) 517 24 45 70 96 234 716 906 1290 1790
2026-04-21 13:15 8.97 506 4000 (1976) 3 (1956) 517 24 45 70 96 234 716 906 1290 1790
2026-04-21 12:15 8.97 506 4000 (1976) 3 (1956) 517 24 45 70 96 234 716 906 1290 1790
2026-04-21 11:15 8.97 506 4000 (1976) 3 (1956) 517 24 45 70 96 234 716 906 1290 1790
2026-04-21 10:15 8.97 506 4000 (1976) 3 (1956) 517 24 45 70 96 234 716 906 1290 1790
2026-04-21 09:15 8.98 509 4000 (1976) 3 (1956) 517 24 45 70 96 234 716 906 1290 1790
2026-04-21 08:15 8.98 509 4000 (1976) 3 (1956) 517 24 45 70 96 234 716 906 1290 1790
2026-04-21 07:15 8.99 512 4000 (1976) 3 (1956) 517 24 45 70 96 234 716 906 1290 1790
2026-04-21 06:15 9.00 515 4000 (1976) 3 (1956) 517 24 45 70 96 234 716 906 1290 1790
2026-04-21 05:15 9.00 515 4000 (1976) 3 (1956) 517 24 45 70 96 234 716 906 1290 1790
2026-04-21 04:15 9.01 518 4000 (1976) 3 (1956) 517 24 45 70 96 234 716 906 1290 1790
2026-04-21 03:15 9.02 521 4000 (1976) 3 (1956) 517 24 45 70 96 234 716 906 1290 1790
2026-04-21 02:15 9.02 521 4000 (1976) 3 (1956) 517 24 45 70 96 234 716 906 1290 1790
2026-04-21 01:15 9.03 524 4000 (1976) 3 (1956) 517 24 45 70 96 234 716 906 1290 1790
2026-04-21 00:15 9.04 527 4000 (1976) 3 (1956) 517 24 45 70 96 234 716 906 1290 1790
2026-04-20 23:15 9.04 527 4000 (1976) 3 (1956) 517 24 45 70 96 234 716 906 1290 1790
2026-04-20 22:15 9.06 534 2890 (1947) 3 (1956) 512 23 44 72 79 231 641 724 1710 2310
2026-04-20 21:15 9.06 534 2890 (1947) 3 (1956) 512 23 44 72 79 231 641 724 1710 2310
2026-04-20 20:15 9.07 537 2890 (1947) 3 (1956) 512 23 44 72 79 231 641 724 1710 2310
2026-04-20 19:15 9.07 537 2890 (1947) 3 (1956) 512 23 44 72 79 231 641 724 1710 2310
2026-04-20 18:15 9.08 540 2890 (1947) 3 (1956) 512 23 44 72 79 231 641 724 1710 2310
2026-04-20 17:15 9.09 543 2890 (1947) 3 (1956) 512 23 44 72 79 231 641 724 1710 2310
2026-04-20 16:15 9.10 546 2890 (1947) 3 (1956) 512 23 44 72 79 231 641 724 1710 2310
2026-04-20 15:15 9.10 546 2890 (1947) 3 (1956) 512 23 44 72 79 231 641 724 1710 2310
2026-04-20 14:15 9.12 553 2890 (1947) 3 (1956) 512 23 44 72 79 231 641 724 1710 2310
2026-04-20 13:15 9.12 553 2890 (1947) 3 (1956) 512 23 44 72 79 231 641 724 1710 2310
2026-04-20 12:15 9.13 556 2890 (1947) 3 (1956) 512 23 44 72 79 231 641 724 1710 2310
2026-04-20 11:15 9.13 556 2890 (1947) 3 (1956) 512 23 44 72 79 231 641 724 1710 2310
2026-04-20 10:15 9.15 562 2890 (1947) 3 (1956) 512 23 44 72 79 231 641 724 1710 2310
2026-04-20 09:15 9.15 562 2890 (1947) 3 (1956) 512 23 44 72 79 231 641 724 1710 2310
2026-04-20 08:15 9.16 565 2890 (1947) 3 (1956) 512 23 44 72 79 231 641 724 1710 2310
2026-04-20 07:15 9.17 569 2890 (1947) 3 (1956) 512 23 44 72 79 231 641 724 1710 2310
2026-04-20 06:15 9.18 572 2890 (1947) 3 (1956) 512 23 44 72 79 231 641 724 1710 2310
2026-04-20 05:15 9.18 572 2890 (1947) 3 (1956) 512 23 44 72 79 231 641 724 1710 2310
2026-04-20 04:15 9.21 582 2890 (1947) 3 (1956) 512 23 44 72 79 231 641 724 1710 2310
2026-04-20 03:15 9.22 585 2890 (1947) 3 (1956) 512 23 44 72 79 231 641 724 1710 2310
2026-04-20 02:15 9.23 588 2890 (1947) 3 (1956) 512 23 44 72 79 231 641 724 1710 2310
2026-04-20 01:15 9.25 595 2890 (1947) 3 (1956) 512 23 44 72 79 231 641 724 1710 2310
2026-04-20 00:15 9.27 602 2890 (1947) 3 (1956) 512 23 44 72 79 231 641 724 1710 2310
2026-04-19 23:15 9.27 602 2890 (1947) 3 (1956) 512 23 44 72 79 231 641 724 1710 2310
2026-04-19 22:15 9.29 608 9060 (1991) 3 (1956) 632 21 28 57 76 185 698 847 1370 3380
2026-04-19 21:15 9.30 612 9060 (1991) 3 (1956) 632 21 28 57 76 185 698 847 1370 3380
2026-04-19 20:15 9.32 618 9060 (1991) 3 (1956) 632 21 28 57 76 185 698 847 1370 3380
2026-04-19 19:15 9.33 622 9060 (1991) 3 (1956) 632 21 28 57 76 185 698 847 1370 3380
2026-04-19 18:15 9.35 628 9060 (1991) 3 (1956) 632 21 28 57 76 185 698 847 1370 3380
2026-04-19 17:15 9.36 631 9060 (1991) 3 (1956) 632 21 28 57 76 185 698 847 1370 3380
2026-04-19 16:15 9.39 640 9060 (1991) 3 (1956) 632 21 28 57 76 185 698 847 1370 3380
2026-04-19 15:15 9.39 640 9060 (1991) 3 (1956) 632 21 28 57 76 185 698 847 1370 3380
2026-04-19 14:15 9.42 648 9060 (1991) 3 (1956) 632 21 28 57 76 185 698 847 1370 3380
2026-04-19 13:15 9.44 654 9060 (1991) 3 (1956) 632 21 28 57 76 185 698 847 1370 3380
2026-04-19 12:15 9.44 654 9060 (1991) 3 (1956) 632 21 28 57 76 185 698 847 1370 3380
2026-04-19 11:15 9.47 663 9060 (1991) 3 (1956) 632 21 28 57 76 185 698 847 1370 3380
2026-04-19 10:15 9.48 666 9060 (1991) 3 (1956) 632 21 28 57 76 185 698 847 1370 3380
2026-04-19 09:15 9.50 672 9060 (1991) 3 (1956) 632 21 28 57 76 185 698 847 1370 3380
2026-04-19 08:15 9.53 680 9060 (1991) 3 (1956) 632 21 28 57 76 185 698 847 1370 3380
2026-04-19 07:15 9.55 686 9060 (1991) 3 (1956) 632 21 28 57 76 185 698 847 1370 3380
2026-04-19 06:15 9.57 692 9060 (1991) 3 (1956) 632 21 28 57 76 185 698 847 1370 3380
2026-04-19 05:15 9.60 701 9060 (1991) 3 (1956) 632 21 28 57 76 185 698 847 1370 3380
2026-04-19 04:15 9.62 707 9060 (1991) 3 (1956) 632 21 28 57 76 185 698 847 1370 3380
2026-04-19 03:15 9.63 710 9060 (1991) 3 (1956) 632 21 28 57 76 185 698 847 1370 3380
2026-04-19 02:15 9.66 719 9060 (1991) 3 (1956) 632 21 28 57 76 185 698 847 1370 3380
2026-04-19 01:15 9.69 728 9060 (1991) 3 (1956) 632 21 28 57 76 185 698 847 1370 3380
2026-04-19 00:15 9.72 737 9060 (1991) 3 (1956) 632 21 28 57 76 185 698 847 1370 3380
2026-04-18 23:15 9.73 740 9060 (1991) 3 (1956) 632 21 28 57 76 185 698 847 1370 3380
2026-04-18 22:15 9.76 749 11000 (2013) 3 (1956) 701 22 31 60 79 190 524 748 1260 2900
2026-04-18 21:15 9.76 749 11000 (2013) 3 (1956) 701 22 31 60 79 190 524 748 1260 2900
2026-04-18 20:15 9.79 759 11000 (2013) 3 (1956) 701 22 31 60 79 190 524 748 1260 2900
2026-04-18 19:15 9.80 762 11000 (2013) 3 (1956) 701 22 31 60 79 190 524 748 1260 2900
2026-04-18 18:15 9.83 771 11000 (2013) 3 (1956) 701 22 31 60 79 190 524 748 1260 2900
2026-04-18 17:15 9.84 774 11000 (2013) 3 (1956) 701 22 31 60 79 190 524 748 1260 2900
2026-04-18 16:15 9.85 777 11000 (2013) 3 (1956) 701 22 31 60 79 190 524 748 1260 2900
2026-04-18 15:15 9.88 786 11000 (2013) 3 (1956) 701 22 31 60 79 190 524 748 1260 2900
2026-04-18 14:15 9.90 793 11000 (2013) 3 (1956) 701 22 31 60 79 190 524 748 1260 2900
2026-04-18 13:15 9.93 802 11000 (2013) 3 (1956) 701 22 31 60 79 190 524 748 1260 2900
2026-04-18 12:15 9.95 808 11000 (2013) 3 (1956) 701 22 31 60 79 190 524 748 1260 2900
2026-04-18 11:15 9.97 815 11000 (2013) 3 (1956) 701 22 31 60 79 190 524 748 1260 2900
2026-04-18 10:15 1 824 11000 (2013) 3 (1956) 701 22 31 60 79 190 524 748 1260 2900
2026-04-18 09:15 10.01 827 11000 (2013) 3 (1956) 701 22 31 60 79 190 524 748 1260 2900
2026-04-18 08:15 10.06 843 11000 (2013) 3 (1956) 701 22 31 60 79 190 524 748 1260 2900
2026-04-18 07:15 10.08 850 11000 (2013) 3 (1956) 701 22 31 60 79 190 524 748 1260 2900
2026-04-18 06:15 10.12 863 11000 (2013) 3 (1956) 701 22 31 60 79 190 524 748 1260 2900
2026-04-18 05:15 10.15 872 11000 (2013) 3 (1956) 701 22 31 60 79 190 524 748 1260 2900
2026-04-18 04:15 10.18 882 11000 (2013) 3 (1956) 701 22 31 60 79 190 524 748 1260 2900
2026-04-18 03:15 10.22 895 11000 (2013) 3 (1956) 701 22 31 60 79 190 524 748 1260 2900
2026-04-18 02:15 10.26 909 11000 (2013) 3 (1956) 701 22 31 60 79 190 524 748 1260 2900
2026-04-18 01:15 10.30 922 11000 (2013) 3 (1956) 701 22 31 60 79 190 524 748 1260 2900
2026-04-18 00:15 10.32 929 11000 (2013) 3 (1956) 701 22 31 60 79 190 524 748 1260 2900
2026-04-17 23:15 10.33 932 11000 (2013) 3 (1956) 701 22 31 60 79 190 524 748 1260 2900
2026-04-17 22:15 10.38 949 7070 (1973) 4 (1956) 504 21 37 60 81 183 435 547 1250 2680
2026-04-17 21:15 10.43 966 7070 (1973) 4 (1956) 504 21 37 60 81 183 435 547 1250 2680
2026-04-17 20:15 10.46 976 7070 (1973) 4 (1956) 504 21 37 60 81 183 435 547 1250 2680
2026-04-17 19:15 10.49 986 7070 (1973) 4 (1956) 504 21 37 60 81 183 435 547 1250 2680
2026-04-17 18:15 10.55 1010 7070 (1973) 4 (1956) 504 21 37 60 81 183 435 547 1250 2680
2026-04-17 17:15 10.60 1020 7070 (1973) 4 (1956) 504 21 37 60 81 183 435 547 1250 2680
2026-04-17 16:15 10.65 1040 7070 (1973) 4 (1956) 504 21 37 60 81 183 435 547 1250 2680
2026-04-17 15:15 10.71 1060 7070 (1973) 4 (1956) 504 21 37 60 81 183 435 547 1250 2680
2026-04-17 14:15 10.77 1080 7070 (1973) 4 (1956) 504 21 37 60 81 183 435 547 1250 2680
2026-04-17 13:15 10.82 1100 7070 (1973) 4 (1956) 504 21 37 60 81 183 435 547 1250 2680
2026-04-17 12:15 10.89 1130 7070 (1973) 4 (1956) 504 21 37 60 81 183 435 547 1250 2680
2026-04-17 11:15 10.98 1160 7070 (1973) 4 (1956) 504 21 37 60 81 183 435 547 1250 2680
2026-04-17 10:15 11.06 1190 7070 (1973) 4 (1956) 504 21 37 60 81 183 435 547 1250 2680
2026-04-17 09:15 11.13 1220 7070 (1973) 4 (1956) 504 21 37 60 81 183 435 547 1250 2680
2026-04-17 08:15 11.22 1250 7070 (1973) 4 (1956) 504 21 37 60 81 183 435 547 1250 2680
2026-04-17 07:15 11.34 1300 7070 (1973) 4 (1956) 504 21 37 60 81 183 435 547 1250 2680
2026-04-17 06:15 11.45 1350 7070 (1973) 4 (1956) 504 21 37 60 81 183 435 547 1250 2680
2026-04-17 05:15 11.56 1400 7070 (1973) 4 (1956) 504 21 37 60 81 183 435 547 1250 2680
2026-04-17 04:15 11.65 1440 7070 (1973) 4 (1956) 504 21 37 60 81 183 435 547 1250 2680
2026-04-17 03:15 11.81 1510 7070 (1973) 4 (1956) 504 21 37 60 81 183 435 547 1250 2680
2026-04-17 02:15 11.85 1530 7070 (1973) 4 (1956) 504 21 37 60 81 183 435 547 1250 2680
2026-04-17 01:15 11.92 1560 7070 (1973) 4 (1956) 504 21 37 60 81 183 435 547 1250 2680
2026-04-17 00:15 12.02 1610 7070 (1973) 4 (1956) 504 21 37 60 81 183 435 547 1250 2680
2026-04-16 23:15 12.09 1640 7070 (1973) 4 (1956) 504 21 37 60 81 183 435 547 1250 2680
2026-04-16 22:15 12.18 1680 7180 (1973) 4 (1956) 655 19 36 67 81 187 433 553 1480 4890
2026-04-16 21:15 12.27 1730 7180 (1973) 4 (1956) 655 19 36 67 81 187 433 553 1480 4890
2026-04-16 20:15 12.37 1770 7180 (1973) 4 (1956) 655 19 36 67 81 187 433 553 1480 4890
2026-04-16 19:15 12.50 1840 7180 (1973) 4 (1956) 655 19 36 67 81 187 433 553 1480 4890
2026-04-16 18:15 12.62 1900 7180 (1973) 4 (1956) 655 19 36 67 81 187 433 553 1480 4890
2026-04-16 17:15 12.77 1980 7180 (1973) 4 (1956) 655 19 36 67 81 187 433 553 1480 4890
2026-04-16 16:15 12.92 2050 7180 (1973) 4 (1956) 655 19 36 67 81 187 433 553 1480 4890
2026-04-16 15:15 13.09 2140 7180 (1973) 4 (1956) 655 19 36 67 81 187 433 553 1480 4890
2026-04-16 14:15 13.14 2170 7180 (1973) 4 (1956) 655 19 36 67 81 187 433 553 1480 4890
2026-04-16 13:15 13.24 2220 7180 (1973) 4 (1956) 655 19 36 67 81 187 433 553 1480 4890
2026-04-16 12:15 13.28 2250 7180 (1973) 4 (1956) 655 19 36 67 81 187 433 553 1480 4890
2026-04-16 11:15 13.30 2260 7180 (1973) 4 (1956) 655 19 36 67 81 187 433 553 1480 4890
2026-04-16 10:15 13.38 2300 7180 (1973) 4 (1956) 655 19 36 67 81 187 433 553 1480 4890
2026-04-16 09:15 13.46 2350 7180 (1973) 4 (1956) 655 19 36 67 81 187 433 553 1480 4890
2026-04-16 08:15 13.49 2360 7180 (1973) 4 (1956) 655 19 36 67 81 187 433 553 1480 4890
2026-04-16 07:15 13.55 2400 7180 (1973) 4 (1956) 655 19 36 67 81 187 433 553 1480 4890
2026-04-16 06:15 13.65 2460 7180 (1973) 4 (1956) 655 19 36 67 81 187 433 553 1480 4890
2026-04-16 05:15 13.76 2530 7180 (1973) 4 (1956) 655 19 36 67 81 187 433 553 1480 4890
2026-04-16 04:15 13.89 2610 7180 (1973) 4 (1956) 655 19 36 67 81 187 433 553 1480 4890
2026-04-16 03:15 13.95 2650 7180 (1973) 4 (1956) 655 19 36 67 81 187 433 553 1480 4890
2026-04-16 02:15 14.10 2740 7180 (1973) 4 (1956) 655 19 36 67 81 187 433 553 1480 4890
2026-04-16 01:15 14.13 2760 7180 (1973) 4 (1956) 655 19 36 67 81 187 433 553 1480 4890
2026-04-16 00:15 14.17 2790 7180 (1973) 4 (1956) 655 19 36 67 81 187 433 553 1480 4890
2026-04-15 23:15 14.11 2750 7180 (1973) 4 (1956) 655 19 36 67 81 187 433 553 1480 4890
2026-04-15 22:15 14.00 2680 7130 (2012) 4 (1956) 497 20 37 69 86 189 517 586 912 2730
2026-04-15 21:15 13.77 2530 7130 (2012) 4 (1956) 497 20 37 69 86 189 517 586 912 2730
2026-04-15 20:15 13.66 2470 7130 (2012) 4 (1956) 497 20 37 69 86 189 517 586 912 2730
2026-04-15 19:15 13.55 2400 7130 (2012) 4 (1956) 497 20 37 69 86 189 517 586 912 2730
2026-04-15 18:15 13.46 2350 7130 (2012) 4 (1956) 497 20 37 69 86 189 517 586 912 2730
2026-04-15 17:15 13.41 2320 7130 (2012) 4 (1956) 497 20 37 69 86 189 517 586 912 2730
2026-04-15 16:15 13.40 2310 7130 (2012) 4 (1956) 497 20 37 69 86 189 517 586 912 2730
2026-04-15 15:15 13.42 2290 7130 (2012) 4 (1956) 497 20 37 69 86 189 517 586 912 2730
2026-04-15 14:15 13.47 2320 7130 (2012) 4 (1956) 497 20 37 69 86 189 517 586 912 2730
2026-04-15 13:15 13.49 2330 7130 (2012) 4 (1956) 497 20 37 69 86 189 517 586 912 2730
2026-04-15 12:15 13.57 2370 7130 (2012) 4 (1956) 497 20 37 69 86 189 517 586 912 2730
2026-04-15 11:15 13.68 2440 7130 (2012) 4 (1956) 497 20 37 69 86 189 517 586 912 2730
2026-04-15 10:15 13.81 2520 7130 (2012) 4 (1956) 497 20 37 69 86 189 517 586 912 2730
2026-04-15 09:15 14.01 2650 7130 (2012) 4 (1956) 497 20 37 69 86 189 517 586 912 2730
2026-04-15 08:15 14.14 2730 7130 (2012) 4 (1956) 497 20 37 69 86 189 517 586 912 2730
2026-04-15 07:15 14.30 2830 7130 (2012) 4 (1956) 497 20 37 69 86 189 517 586 912 2730
2026-04-15 06:15 14.18 2760 7130 (2012) 4 (1956) 497 20 37 69 86 189 517 586 912 2730
2026-04-15 05:15 13.77 2500 7130 (2012) 4 (1956) 497 20 37 69 86 189 517 586 912 2730
2026-04-15 04:15 13.16 2150 7130 (2012) 4 (1956) 497 20 37 69 86 189 517 586 912 2730
2026-04-15 03:15 12.45 1780 7130 (2012) 4 (1956) 497 20 37 69 86 189 517 586 912 2730
2026-04-15 02:15 11.24 1240 7130 (2012) 4 (1956) 497 20 37 69 86 189 517 586 912 2730
2026-04-15 01:15 9.86 762 7130 (2012) 4 (1956) 497 20 37 69 86 189 517 586 912 2730
2026-04-15 00:15 9.50 654 7130 (2012) 4 (1956) 497 20 37 69 86 189 517 586 912 2730
2026-04-14 23:15 9.46 643 7130 (2012) 4 (1956) 497 20 37 69 86 189 517 586 912 2730
2026-04-14 22:15 9.47 646 3620 (1991) 4 (1956) 413 20 41 67 92 227 490 582 859 1780
2026-04-14 21:15 9.49 651 3620 (1991) 4 (1956) 413 20 41 67 92 227 490 582 859 1780
2026-04-14 20:15 9.49 651 3620 (1991) 4 (1956) 413 20 41 67 92 227 490 582 859 1780
2026-04-14 19:15 9.51 657 3620 (1991) 4 (1956) 413 20 41 67 92 227 490 582 859 1780
2026-04-14 18:15 9.54 666 3620 (1991) 4 (1956) 413 20 41 67 92 227 490 582 859 1780
2026-04-14 17:15 9.57 675 3620 (1991) 4 (1956) 413 20 41 67 92 227 490 582 859 1780
2026-04-14 16:15 9.55 669 3620 (1991) 4 (1956) 413 20 41 67 92 227 490 582 859 1780
2026-04-14 15:15 9.59 680 3620 (1991) 4 (1956) 413 20 41 67 92 227 490 582 859 1780
2026-04-14 14:15 9.67 704 3620 (1991) 4 (1956) 413 20 41 67 92 227 490 582 859 1780
2026-04-14 13:15 9.69 710 3620 (1991) 4 (1956) 413 20 41 67 92 227 490 582 859 1780
2026-04-14 12:15 9.71 716 3620 (1991) 4 (1956) 413 20 41 67 92 227 490 582 859 1780
2026-04-14 11:15 9.70 713 3620 (1991) 4 (1956) 413 20 41 67 92 227 490 582 859 1780
2026-04-14 10:15 9.72 719 3620 (1991) 4 (1956) 413 20 41 67 92 227 490 582 859 1780
2026-04-14 09:15 9.74 725 3620 (1991) 4 (1956) 413 20 41 67 92 227 490 582 859 1780
2026-04-14 08:15 9.76 731 3620 (1991) 4 (1956) 413 20 41 67 92 227 490 582 859 1780
2026-04-14 07:15 9.77 734 3620 (1991) 4 (1956) 413 20 41 67 92 227 490 582 859 1780
2026-04-14 06:15 9.78 737 3620 (1991) 4 (1956) 413 20 41 67 92 227 490 582 859 1780
2026-04-14 05:15 9.79 740 3620 (1991) 4 (1956) 413 20 41 67 92 227 490 582 859 1780
2026-04-14 04:15 9.80 743 3620 (1991) 4 (1956) 413 20 41 67 92 227 490 582 859 1780
2026-04-14 03:15 9.84 755 3620 (1991) 4 (1956) 413 20 41 67 92 227 490 582 859 1780
2026-04-14 02:15 9.85 759 3620 (1991) 4 (1956) 413 20 41 67 92 227 490 582 859 1780
2026-04-14 01:15 9.86 762 3620 (1991) 4 (1956) 413 20 41 67 92 227 490 582 859 1780
2026-04-14 00:15 9.87 765 3620 (1991) 4 (1956) 413 20 41 67 92 227 490 582 859 1780
2026-04-13 23:15 9.89 771 3620 (1991) 4 (1956) 413 20 41 67 92 227 490 582 859 1780
2026-04-13 22:15 9.92 780 3760 (1973) 4 (1956) 418 21 40 63 76 217 454 518 1120 1890
2026-04-13 21:15 9.91 777 3760 (1973) 4 (1956) 418 21 40 63 76 217 454 518 1120 1890
2026-04-13 20:15 9.95 789 3760 (1973) 4 (1956) 418 21 40 63 76 217 454 518 1120 1890
2026-04-13 19:15 9.96 793 3760 (1973) 4 (1956) 418 21 40 63 76 217 454 518 1120 1890
2026-04-13 18:15 9.98 799 3760 (1973) 4 (1956) 418 21 40 63 76 217 454 518 1120 1890
2026-04-13 17:15 9.99 802 3760 (1973) 4 (1956) 418 21 40 63 76 217 454 518 1120 1890
2026-04-13 16:15 10.02 811 3760 (1973) 4 (1956) 418 21 40 63 76 217 454 518 1120 1890
2026-04-13 15:15 10.02 811 3760 (1973) 4 (1956) 418 21 40 63 76 217 454 518 1120 1890
2026-04-13 14:15 10.03 815 3760 (1973) 4 (1956) 418 21 40 63 76 217 454 518 1120 1890
2026-04-13 13:15 10.05 821 3760 (1973) 4 (1956) 418 21 40 63 76 217 454 518 1120 1890
2026-04-13 12:15 10.07 827 3760 (1973) 4 (1956) 418 21 40 63 76 217 454 518 1120 1890
2026-04-13 11:15 10.07 827 3760 (1973) 4 (1956) 418 21 40 63 76 217 454 518 1120 1890
2026-04-13 10:15 10.11 840 3760 (1973) 4 (1956) 418 21 40 63 76 217 454 518 1120 1890
2026-04-13 09:15 10.10 837 3760 (1973) 4 (1956) 418 21 40 63 76 217 454 518 1120 1890
2026-04-13 08:15 10.12 843 3760 (1973) 4 (1956) 418 21 40 63 76 217 454 518 1120 1890
2026-04-13 07:15 10.14 850 3760 (1973) 4 (1956) 418 21 40 63 76 217 454 518 1120 1890
2026-04-13 06:15 10.15 853 3760 (1973) 4 (1956) 418 21 40 63 76 217 454 518 1120 1890
2026-04-13 05:15 10.19 866 3760 (1973) 4 (1956) 418 21 40 63 76 217 454 518 1120 1890
2026-04-13 04:15 10.19 866 3760 (1973) 4 (1956) 418 21 40 63 76 217 454 518 1120 1890
2026-04-13 03:15 10.22 876 3760 (1973) 4 (1956) 418 21 40 63 76 217 454 518 1120 1890
2026-04-13 02:15 10.24 882 3760 (1973) 4 (1956) 418 21 40 63 76 217 454 518 1120 1890
2026-04-13 01:15 10.28 895 3760 (1973) 4 (1956) 418 21 40 63 76 217 454 518 1120 1890
2026-04-13 00:15 10.28 895 3760 (1973) 4 (1956) 418 21 40 63 76 217 454 518 1120 1890
2026-04-12 23:15 10.33 912 3760 (1973) 4 (1956) 418 21 40 63 76 217 454 518 1120 1890
2026-04-12 22:15 10.33 912 3370 (1961) 4 (1956) 476 23 33 61 72 169 512 625 1430 2330
2026-04-12 21:15 10.38 929 3370 (1961) 4 (1956) 476 23 33 61 72 169 512 625 1430 2330
2026-04-12 20:15 10.38 929 3370 (1961) 4 (1956) 476 23 33 61 72 169 512 625 1430 2330
2026-04-12 19:15 10.43 945 3370 (1961) 4 (1956) 476 23 33 61 72 169 512 625 1430 2330
2026-04-12 18:15 10.43 945 3370 (1961) 4 (1956) 476 23 33 61 72 169 512 625 1430 2330
2026-04-12 17:15 10.47 959 3370 (1961) 4 (1956) 476 23 33 61 72 169 512 625 1430 2330
2026-04-12 16:15 10.48 962 3370 (1961) 4 (1956) 476 23 33 61 72 169 512 625 1430 2330
2026-04-12 15:15 10.51 973 3370 (1961) 4 (1956) 476 23 33 61 72 169 512 625 1430 2330
2026-04-12 14:15 10.57 993 3370 (1961) 4 (1956) 476 23 33 61 72 169 512 625 1430 2330
2026-04-12 13:15 10.59 1000 3370 (1961) 4 (1956) 476 23 33 61 72 169 512 625 1430 2330
2026-04-12 12:15 10.75 1060 3370 (1961) 4 (1956) 476 23 33 61 72 169 512 625 1430 2330
2026-04-12 11:15 10.68 1030 3370 (1961) 4 (1956) 476 23 33 61 72 169 512 625 1430 2330
2026-04-12 10:15 10.70 1040 3370 (1961) 4 (1956) 476 23 33 61 72 169 512 625 1430 2330
2026-04-12 09:15 10.85 1090 3370 (1961) 4 (1956) 476 23 33 61 72 169 512 625 1430 2330
2026-04-12 08:15 10.79 1070 3370 (1961) 4 (1956) 476 23 33 61 72 169 512 625 1430 2330
2026-04-12 07:15 10.83 1080 3370 (1961) 4 (1956) 476 23 33 61 72 169 512 625 1430 2330
2026-04-12 06:15 10.88 1100 3370 (1961) 4 (1956) 476 23 33 61 72 169 512 625 1430 2330
2026-04-12 05:15 10.91 1110 3370 (1961) 4 (1956) 476 23 33 61 72 169 512 625 1430 2330
2026-04-12 04:15 11.00 1150 3370 (1961) 4 (1956) 476 23 33 61 72 169 512 625 1430 2330
2026-04-12 03:15 11.06 1170 3370 (1961) 4 (1956) 476 23 33 61 72 169 512 625 1430 2330
2026-04-12 02:15 11.12 1190 3370 (1961) 4 (1956) 476 23 33 61 72 169 512 625 1430 2330
2026-04-12 01:15 11.18 1210 3370 (1961) 4 (1956) 476 23 33 61 72 169 512 625 1430 2330
2026-04-12 00:15 11.26 1250 3370 (1961) 4 (1956) 476 23 33 61 72 169 512 625 1430 2330
2026-04-11 23:15 11.31 1270 3370 (1961) 4 (1956) 476 23 33 61 72 169 512 625 1430 2330
2026-04-11 22:15 11.41 1310 7500 (1947) 4 (1956) 457 22 32 57 72 150 450 514 885 2350
2026-04-11 21:15 11.48 1340 7500 (1947) 4 (1956) 457 22 32 57 72 150 450 514 885 2350
2026-04-11 20:15 11.59 1390 7500 (1947) 4 (1956) 457 22 32 57 72 150 450 514 885 2350
2026-04-11 19:15 11.77 1470 7500 (1947) 4 (1956) 457 22 32 57 72 150 450 514 885 2350
2026-04-11 18:15 11.85 1500 7500 (1947) 4 (1956) 457 22 32 57 72 150 450 514 885 2350
2026-04-11 17:15 11.89 1520 7500 (1947) 4 (1956) 457 22 32 57 72 150 450 514 885 2350
2026-04-11 16:15 11.95 1550 7500 (1947) 4 (1956) 457 22 32 57 72 150 450 514 885 2350
2026-04-11 15:15 12.10 1620 7500 (1947) 4 (1956) 457 22 32 57 72 150 450 514 885 2350
2026-04-11 14:15 12.23 1680 7500 (1947) 4 (1956) 457 22 32 57 72 150 450 514 885 2350
2026-04-11 13:15 12.44 1780 7500 (1947) 4 (1956) 457 22 32 57 72 150 450 514 885 2350
2026-04-11 12:15 12.30 1710 7500 (1947) 4 (1956) 457 22 32 57 72 150 450 514 885 2350
2026-04-11 11:15 12.44 1780 7500 (1947) 4 (1956) 457 22 32 57 72 150 450 514 885 2350
2026-04-11 10:15 12.59 1850 7500 (1947) 4 (1956) 457 22 32 57 72 150 450 514 885 2350
2026-04-11 09:15 12.74 1930 7500 (1947) 4 (1956) 457 22 32 57 72 150 450 514 885 2350
2026-04-11 08:15 12.82 1970 7500 (1947) 4 (1956) 457 22 32 57 72 150 450 514 885 2350
2026-04-11 07:15 13.00 2060 7500 (1947) 4 (1956) 457 22 32 57 72 150 450 514 885 2350
2026-04-11 06:15 13.14 2140 7500 (1947) 4 (1956) 457 22 32 57 72 150 450 514 885 2350
2026-04-11 05:15 13.30 2220 7500 (1947) 4 (1956) 457 22 32 57 72 150 450 514 885 2350
2026-04-11 04:15 13.45 2310 7500 (1947) 4 (1956) 457 22 32 57 72 150 450 514 885 2350
2026-04-11 03:15 13.63 2410 7500 (1947) 4 (1956) 457 22 32 57 72 150 450 514 885 2350
2026-04-11 02:15 13.87 2560 7500 (1947) 4 (1956) 457 22 32 57 72 150 450 514 885 2350
2026-04-11 01:15 14.04 2670 7500 (1947) 4 (1956) 457 22 32 57 72 150 450 514 885 2350
2026-04-11 00:15 14.21 2780 7500 (1947) 4 (1956) 457 22 32 57 72 150 450 514 885 2350
2026-04-10 23:15 14.37 2880 7500 (1947) 4 (1956) 457 22 32 57 72 150 450 514 885 2350
2026-04-10 22:15 14.52 2980 5530 (1947) 5 (1956) 389 22 35 67 73 149 367 508 1070 1450
2026-04-10 21:15 14.62 3050 5530 (1947) 5 (1956) 389 22 35 67 73 149 367 508 1070 1450
2026-04-10 20:15 14.67 3080 5530 (1947) 5 (1956) 389 22 35 67 73 149 367 508 1070 1450
2026-04-10 19:15 14.78 3160 5530 (1947) 5 (1956) 389 22 35 67 73 149 367 508 1070 1450
2026-04-10 18:15 14.65 3070 5530 (1947) 5 (1956) 389 22 35 67 73 149 367 508 1070 1450
2026-04-10 17:15 14.53 2990 5530 (1947) 5 (1956) 389 22 35 67 73 149 367 508 1070 1450
2026-04-10 16:15 14.44 2930 5530 (1947) 5 (1956) 389 22 35 67 73 149 367 508 1070 1450
2026-04-10 15:15 14.27 2810 5530 (1947) 5 (1956) 389 22 35 67 73 149 367 508 1070 1450
2026-04-10 14:15 14.14 2730 5530 (1947) 5 (1956) 389 22 35 67 73 149 367 508 1070 1450
2026-04-10 13:15 14.06 2680 5530 (1947) 5 (1956) 389 22 35 67 73 149 367 508 1070 1450
2026-04-10 12:15 13.92 2590 5530 (1947) 5 (1956) 389 22 35 67 73 149 367 508 1070 1450
2026-04-10 11:15 13.75 2480 5530 (1947) 5 (1956) 389 22 35 67 73 149 367 508 1070 1450
2026-04-10 10:15 13.56 2370 5530 (1947) 5 (1956) 389 22 35 67 73 149 367 508 1070 1450
2026-04-10 09:15 13.24 2190 5530 (1947) 5 (1956) 389 22 35 67 73 149 367 508 1070 1450
2026-04-10 08:15 12.92 2020 5530 (1947) 5 (1956) 389 22 35 67 73 149 367 508 1070 1450
2026-04-10 07:15 12.55 1830 5530 (1947) 5 (1956) 389 22 35 67 73 149 367 508 1070 1450
2026-04-10 06:15 12.12 1630 5530 (1947) 5 (1956) 389 22 35 67 73 149 367 508 1070 1450
2026-04-10 05:15 11.63 1400 5530 (1947) 5 (1956) 389 22 35 67 73 149 367 508 1070 1450
2026-04-10 04:15 11.25 1240 5530 (1947) 5 (1956) 389 22 35 67 73 149 367 508 1070 1450
2026-04-10 03:15 10.96 1130 5530 (1947) 5 (1956) 389 22 35 67 73 149 367 508 1070 1450
2026-04-10 02:15 10.66 1020 5530 (1947) 5 (1956) 389 22 35 67 73 149 367 508 1070 1450
2026-04-10 01:15 10.31 905 5530 (1947) 5 (1956) 389 22 35 67 73 149 367 508 1070 1450
2026-04-10 00:15 9.94 786 5530 (1947) 5 (1956) 389 22 35 67 73 149 367 508 1070 1450
2026-04-09 23:15 9.54 666 5530 (1947) 5 (1956) 389 22 35 67 73 149 367 508 1070 1450
2026-04-09 22:15 9.22 565 2710 (1965) 5 (1956) 343 25 36 64 75 153 356 472 911 1600
2026-04-09 21:15 8.95 482 2710 (1965) 5 (1956) 343 25 36 64 75 153 356 472 911 1600
2026-04-09 20:15 8.80 438 2710 (1965) 5 (1956) 343 25 36 64 75 153 356 472 911 1600
2026-04-09 19:15 8.70 411 2710 (1965) 5 (1956) 343 25 36 64 75 153 356 472 911 1600
2026-04-09 18:15 8.65 397 2710 (1965) 5 (1956) 343 25 36 64 75 153 356 472 911 1600
2026-04-09 17:15 8.64 394 2710 (1965) 5 (1956) 343 25 36 64 75 153 356 472 911 1600
2026-04-09 16:15 8.61 386 2710 (1965) 5 (1956) 343 25 36 64 75 153 356 472 911 1600
2026-04-09 15:15 8.58 379 2710 (1965) 5 (1956) 343 25 36 64 75 153 356 472 911 1600
2026-04-09 14:15 8.57 376 2710 (1965) 5 (1956) 343 25 36 64 75 153 356 472 911 1600
2026-04-09 13:15 8.58 379 2710 (1965) 5 (1956) 343 25 36 64 75 153 356 472 911 1600
2026-04-09 12:15 8.59 381 2710 (1965) 5 (1956) 343 25 36 64 75 153 356 472 911 1600
2026-04-09 11:15 8.59 381 2710 (1965) 5 (1956) 343 25 36 64 75 153 356 472 911 1600
2026-04-09 10:15 8.60 384 2710 (1965) 5 (1956) 343 25 36 64 75 153 356 472 911 1600
2026-04-09 09:15 8.60 384 2710 (1965) 5 (1956) 343 25 36 64 75 153 356 472 911 1600
2026-04-09 08:15 8.60 384 2710 (1965) 5 (1956) 343 25 36 64 75 153 356 472 911 1600
2026-04-09 07:15 8.60 384 2710 (1965) 5 (1956) 343 25 36 64 75 153 356 472 911 1600
2026-04-09 06:15 8.60 384 2710 (1965) 5 (1956) 343 25 36 64 75 153 356 472 911 1600
2026-04-09 05:15 8.62 389 2710 (1965) 5 (1956) 343 25 36 64 75 153 356 472 911 1600
2026-04-09 04:15 8.62 389 2710 (1965) 5 (1956) 343 25 36 64 75 153 356 472 911 1600
2026-04-09 03:15 8.64 394 2710 (1965) 5 (1956) 343 25 36 64 75 153 356 472 911 1600
2026-04-09 02:15 8.63 392 2710 (1965) 5 (1956) 343 25 36 64 75 153 356 472 911 1600
2026-04-09 01:15 8.65 397 2710 (1965) 5 (1956) 343 25 36 64 75 153 356 472 911 1600
2026-04-09 00:15 8.64 394 2710 (1965) 5 (1956) 343 25 36 64 75 153 356 472 911 1600
2026-04-08 23:15 8.66 400 2710 (1965) 5 (1956) 343 25 36 64 75 153 356 472 911 1600
2026-04-08 22:15 8.66 400 2090 (1993) 5 (1956) 318 24 32 64 82 167 372 464 858 1110
2026-04-08 21:15 8.67 403 2090 (1993) 5 (1956) 318 24 32 64 82 167 372 464 858 1110
2026-04-08 20:15 8.66 400 2090 (1993) 5 (1956) 318 24 32 64 82 167 372 464 858 1110
2026-04-08 19:15 8.67 403 2090 (1993) 5 (1956) 318 24 32 64 82 167 372 464 858 1110
2026-04-08 18:15 8.67 403 2090 (1993) 5 (1956) 318 24 32 64 82 167 372 464 858 1110
2026-04-08 17:15 8.67 403 2090 (1993) 5 (1956) 318 24 32 64 82 167 372 464 858 1110
2026-04-08 16:15 8.68 405 2090 (1993) 5 (1956) 318 24 32 64 82 167 372 464 858 1110
2026-04-08 15:15 8.69 408 2090 (1993) 5 (1956) 318 24 32 64 82 167 372 464 858 1110
2026-04-08 14:15 8.70 411 2090 (1993) 5 (1956) 318 24 32 64 82 167 372 464 858 1110
2026-04-08 13:15 8.71 413 2090 (1993) 5 (1956) 318 24 32 64 82 167 372 464 858 1110
2026-04-08 12:15 8.72 416 2090 (1993) 5 (1956) 318 24 32 64 82 167 372 464 858 1110
2026-04-08 11:15 8.73 419 2090 (1993) 5 (1956) 318 24 32 64 82 167 372 464 858 1110
2026-04-08 10:15 8.74 422 2090 (1993) 5 (1956) 318 24 32 64 82 167 372 464 858 1110
2026-04-08 09:15 8.73 419 2090 (1993) 5 (1956) 318 24 32 64 82 167 372 464 858 1110
2026-04-08 08:15 8.75 424 2090 (1993) 5 (1956) 318 24 32 64 82 167 372 464 858 1110
2026-04-08 07:15 8.77 430 2090 (1993) 5 (1956) 318 24 32 64 82 167 372 464 858 1110
2026-04-08 06:15 8.77 430 2090 (1993) 5 (1956) 318 24 32 64 82 167 372 464 858 1110
2026-04-08 05:15 8.75 424 2090 (1993) 5 (1956) 318 24 32 64 82 167 372 464 858 1110
2026-04-08 04:15 8.76 427 2090 (1993) 5 (1956) 318 24 32 64 82 167 372 464 858 1110
2026-04-08 03:15 8.77 430 2090 (1993) 5 (1956) 318 24 32 64 82 167 372 464 858 1110
2026-04-08 02:15 8.78 433 2090 (1993) 5 (1956) 318 24 32 64 82 167 372 464 858 1110
2026-04-08 01:15 8.79 436 2090 (1993) 5 (1956) 318 24 32 64 82 167 372 464 858 1110
2026-04-08 00:15 8.80 438 2090 (1993) 5 (1956) 318 24 32 64 82 167 372 464 858 1110
2026-04-07 23:15 8.80 438 2090 (1993) 5 (1956) 318 24 32 64 82 167 372 464 858 1110
2026-04-07 22:15 8.81 441 1690 (1965) 6 (1956) 294 24 33 70 92 174 360 518 736 1020
2026-04-07 21:15 8.82 444 1690 (1965) 6 (1956) 294 24 33 70 92 174 360 518 736 1020
2026-04-07 20:15 8.82 444 1690 (1965) 6 (1956) 294 24 33 70 92 174 360 518 736 1020
2026-04-07 19:15 8.84 450 1690 (1965) 6 (1956) 294 24 33 70 92 174 360 518 736 1020
2026-04-07 18:15 8.84 450 1690 (1965) 6 (1956) 294 24 33 70 92 174 360 518 736 1020
2026-04-07 17:15 8.86 456 1690 (1965) 6 (1956) 294 24 33 70 92 174 360 518 736 1020
2026-04-07 16:15 8.87 458 1690 (1965) 6 (1956) 294 24 33 70 92 174 360 518 736 1020
2026-04-07 15:15 8.87 458 1690 (1965) 6 (1956) 294 24 33 70 92 174 360 518 736 1020
2026-04-07 14:15 8.87 458 1690 (1965) 6 (1956) 294 24 33 70 92 174 360 518 736 1020
2026-04-07 13:15 8.90 467 1690 (1965) 6 (1956) 294 24 33 70 92 174 360 518 736 1020
2026-04-07 12:15 8.90 467 1690 (1965) 6 (1956) 294 24 33 70 92 174 360 518 736 1020
2026-04-07 11:15 8.92 473 1690 (1965) 6 (1956) 294 24 33 70 92 174 360 518 736 1020
2026-04-07 10:15 8.94 479 1690 (1965) 6 (1956) 294 24 33 70 92 174 360 518 736 1020
2026-04-07 09:15 8.95 482 1690 (1965) 6 (1956) 294 24 33 70 92 174 360 518 736 1020
2026-04-07 08:15 8.95 482 1690 (1965) 6 (1956) 294 24 33 70 92 174 360 518 736 1020
2026-04-07 07:15 8.98 491 1690 (1965) 6 (1956) 294 24 33 70 92 174 360 518 736 1020
2026-04-07 06:15 9.00 497 1690 (1965) 6 (1956) 294 24 33 70 92 174 360 518 736 1020
2026-04-07 05:15 9.00 497 1690 (1965) 6 (1956) 294 24 33 70 92 174 360 518 736 1020
2026-04-07 04:15 9.01 500 1690 (1965) 6 (1956) 294 24 33 70 92 174 360 518 736 1020
2026-04-07 03:15 9.04 509 1690 (1965) 6 (1956) 294 24 33 70 92 174 360 518 736 1020
2026-04-07 02:15 9.06 515 1690 (1965) 6 (1956) 294 24 33 70 92 174 360 518 736 1020
2026-04-07 01:15 9.06 515 1690 (1965) 6 (1956) 294 24 33 70 92 174 360 518 736 1020
2026-04-07 00:15 9.10 527 1690 (1965) 6 (1956) 294 24 33 70 92 174 360 518 736 1020
2026-04-06 23:15 9.09 524 1690 (1965) 6 (1956) 294 24 33 70 92 174 360 518 736 1020
2026-04-06 22:15 9.12 534 7640 (1965) 6 (1956) 399 21 30 68 88 180 405 452 769 1500
2026-04-06 21:15 9.15 543 7640 (1965) 6 (1956) 399 21 30 68 88 180 405 452 769 1500
2026-04-06 20:15 9.17 549 7640 (1965) 6 (1956) 399 21 30 68 88 180 405 452 769 1500
2026-04-06 19:15 9.18 553 7640 (1965) 6 (1956) 399 21 30 68 88 180 405 452 769 1500
2026-04-06 18:15 9.20 559 7640 (1965) 6 (1956) 399 21 30 68 88 180 405 452 769 1500
2026-04-06 17:15 9.23 569 7640 (1965) 6 (1956) 399 21 30 68 88 180 405 452 769 1500
2026-04-06 16:15 9.23 569 7640 (1965) 6 (1956) 399 21 30 68 88 180 405 452 769 1500
2026-04-06 15:15 9.26 578 7640 (1965) 6 (1956) 399 21 30 68 88 180 405 452 769 1500
2026-04-06 14:15 9.31 595 7640 (1965) 6 (1956) 399 21 30 68 88 180 405 452 769 1500
2026-04-06 13:15 9.31 595 7640 (1965) 6 (1956) 399 21 30 68 88 180 405 452 769 1500
2026-04-06 12:15 9.31 595 7640 (1965) 6 (1956) 399 21 30 68 88 180 405 452 769 1500
2026-04-06 11:15 9.34 605 7640 (1965) 6 (1956) 399 21 30 68 88 180 405 452 769 1500
2026-04-06 10:15 9.37 615 7640 (1965) 6 (1956) 399 21 30 68 88 180 405 452 769 1500
2026-04-06 09:15 9.41 628 7640 (1965) 6 (1956) 399 21 30 68 88 180 405 452 769 1500
2026-04-06 08:15 9.41 628 7640 (1965) 6 (1956) 399 21 30 68 88 180 405 452 769 1500
2026-04-06 07:15 9.44 637 7640 (1965) 6 (1956) 399 21 30 68 88 180 405 452 769 1500
2026-04-06 06:15 9.50 654 7640 (1965) 6 (1956) 399 21 30 68 88 180 405 452 769 1500
2026-04-06 05:15 9.49 651 7640 (1965) 6 (1956) 399 21 30 68 88 180 405 452 769 1500
2026-04-06 04:15 9.53 663 7640 (1965) 6 (1956) 399 21 30 68 88 180 405 452 769 1500
2026-04-06 03:15 9.56 672 7640 (1965) 6 (1956) 399 21 30 68 88 180 405 452 769 1500
2026-04-06 02:15 9.60 683 7640 (1965) 6 (1956) 399 21 30 68 88 180 405 452 769 1500
2026-04-06 01:15 9.64 695 7640 (1965) 6 (1956) 399 21 30 68 88 180 405 452 769 1500
2026-04-06 00:15 9.67 704 7640 (1965) 6 (1956) 399 21 30 68 88 180 405 452 769 1500
2026-04-05 23:15 9.69 710 7640 (1965) 6 (1956) 399 21 30 68 88 180 405 452 769 1500
2026-04-05 22:15 9.74 725 5730 (1947) 7 (1956) 429 21 29 72 86 170 374 451 977 1980
2026-04-05 21:15 9.77 734 5730 (1947) 7 (1956) 429 21 29 72 86 170 374 451 977 1980
2026-04-05 20:15 9.78 737 5730 (1947) 7 (1956) 429 21 29 72 86 170 374 451 977 1980
2026-04-05 19:15 9.84 755 5730 (1947) 7 (1956) 429 21 29 72 86 170 374 451 977 1980
2026-04-05 18:15 9.88 768 5730 (1947) 7 (1956) 429 21 29 72 86 170 374 451 977 1980
2026-04-05 17:15 9.92 780 5730 (1947) 7 (1956) 429 21 29 72 86 170 374 451 977 1980
2026-04-05 16:15 9.96 793 5730 (1947) 7 (1956) 429 21 29 72 86 170 374 451 977 1980
2026-04-05 15:15 10.03 815 5730 (1947) 7 (1956) 429 21 29 72 86 170 374 451 977 1980
2026-04-05 14:15 10.06 824 5730 (1947) 7 (1956) 429 21 29 72 86 170 374 451 977 1980
2026-04-05 13:15 10.14 850 5730 (1947) 7 (1956) 429 21 29 72 86 170 374 451 977 1980
2026-04-05 12:15 10.17 859 5730 (1947) 7 (1956) 429 21 29 72 86 170 374 451 977 1980
2026-04-05 11:15 10.22 876 5730 (1947) 7 (1956) 429 21 29 72 86 170 374 451 977 1980
2026-04-05 10:15 10.29 899 5730 (1947) 7 (1956) 429 21 29 72 86 170 374 451 977 1980
2026-04-05 09:15 10.34 915 5730 (1947) 7 (1956) 429 21 29 72 86 170 374 451 977 1980
2026-04-05 08:15 10.42 942 5730 (1947) 7 (1956) 429 21 29 72 86 170 374 451 977 1980
2026-04-05 07:15 10.48 962 5730 (1947) 7 (1956) 429 21 29 72 86 170 374 451 977 1980
2026-04-05 06:15 10.55 986 5730 (1947) 7 (1956) 429 21 29 72 86 170 374 451 977 1980
2026-04-05 05:15 10.62 1010 5730 (1947) 7 (1956) 429 21 29 72 86 170 374 451 977 1980
2026-04-05 04:15 10.66 1020 5730 (1947) 7 (1956) 429 21 29 72 86 170 374 451 977 1980
2026-04-05 03:15 10.73 1050 5730 (1947) 7 (1956) 429 21 29 72 86 170 374 451 977 1980
2026-04-05 02:15 10.77 1060 5730 (1947) 7 (1956) 429 21 29 72 86 170 374 451 977 1980
2026-04-05 01:15 10.83 1080 5730 (1947) 7 (1956) 429 21 29 72 86 170 374 451 977 1980
2026-04-05 00:15 10.90 1110 5730 (1947) 7 (1956) 429 21 29 72 86 170 374 451 977 1980
2026-04-04 23:15 10.97 1130 5730 (1947) 7 (1956) 429 21 29 72 86 170 374 451 977 1980
2026-04-04 22:15 11.03 1160 4810 (1947) 8 (1954) 456 20 29 73 77 185 413 524 1110 2360
2026-04-04 21:15 11.12 1190 4810 (1947) 8 (1954) 456 20 29 73 77 185 413 524 1110 2360
2026-04-04 20:15 11.19 1220 4810 (1947) 8 (1954) 456 20 29 73 77 185 413 524 1110 2360
2026-04-04 19:15 11.30 1260 4810 (1947) 8 (1954) 456 20 29 73 77 185 413 524 1110 2360
2026-04-04 18:15 11.37 1290 4810 (1947) 8 (1954) 456 20 29 73 77 185 413 524 1110 2360
2026-04-04 17:15 11.59 1390 4810 (1947) 8 (1954) 456 20 29 73 77 185 413 524 1110 2360
2026-04-04 16:15 11.57 1380 4810 (1947) 8 (1954) 456 20 29 73 77 185 413 524 1110 2360
2026-04-04 15:15 11.65 1410 4810 (1947) 8 (1954) 456 20 29 73 77 185 413 524 1110 2360
2026-04-04 14:15 11.74 1450 4810 (1947) 8 (1954) 456 20 29 73 77 185 413 524 1110 2360
2026-04-04 13:15 11.91 1530 4810 (1947) 8 (1954) 456 20 29 73 77 185 413 524 1110 2360
2026-04-04 12:15 11.75 1460 4810 (1947) 8 (1954) 456 20 29 73 77 185 413 524 1110 2360
2026-04-04 11:15 11.78 1470 4810 (1947) 8 (1954) 456 20 29 73 77 185 413 524 1110 2360
2026-04-04 10:15 11.73 1450 4810 (1947) 8 (1954) 456 20 29 73 77 185 413 524 1110 2360
2026-04-04 09:15 11.79 1470 4810 (1947) 8 (1954) 456 20 29 73 77 185 413 524 1110 2360
2026-04-04 08:15 11.60 1390 4810 (1947) 8 (1954) 456 20 29 73 77 185 413 524 1110 2360
2026-04-04 07:15 11.39 1300 4810 (1947) 8 (1954) 456 20 29 73 77 185 413 524 1110 2360
2026-04-04 06:15 11.12 1190 4810 (1947) 8 (1954) 456 20 29 73 77 185 413 524 1110 2360
2026-04-04 05:15 10.81 1080 4810 (1947) 8 (1954) 456 20 29 73 77 185 413 524 1110 2360
2026-04-04 04:15 10.57 993 4810 (1947) 8 (1954) 456 20 29 73 77 185 413 524 1110 2360
2026-04-04 03:15 10.39 932 4810 (1947) 8 (1954) 456 20 29 73 77 185 413 524 1110 2360
2026-04-04 02:15 10.23 879 4810 (1947) 8 (1954) 456 20 29 73 77 185 413 524 1110 2360
2026-04-04 01:15 9.92 780 4810 (1947) 8 (1954) 456 20 29 73 77 185 413 524 1110 2360
2026-04-04 00:15 9.50 654 4810 (1947) 8 (1954) 456 20 29 73 77 185 413 524 1110 2360
2026-04-03 23:15 9.02 503 4810 (1947) 8 (1954) 456 20 29 73 77 185 413 524 1110 2360

A total of 752 rows are displayed for years 1941 through 2025.